Tracking 35237 objects as of 4-Sep-2026
HD Live streaming from Space Station
objects crossing your sky now

STARLINK-37323

Track STARLINK-37323 now!
10-day predictions
STARLINK-37323 is classified as:


NORAD ID: 69516
Int'l Code: 2026-133J
Launch date: June 12, 2026
Source: United States (US)
Launch site: AIR FORCE EASTERN TEST RANGE (AFETR)
Your satellite tracking list
Your tracking list is empty




NASA's NSSDC Master Catalog

Two Line Element Set (TLE):
1 69516U 26133J   26247.54636830  .00011174  00000-0  34133-3 0  9999
2 69516  53.1599 304.3673 0001656  71.1258 288.9924 15.34401675 14305
Source of the keplerian elements: AFSPC